Home   Weather   Fairbanks   Past weeks
Flag for USA

Past Weather in Fairbanks, Alaska, USA — Yesterday and Last 2 Weeks

Now
-4 °F

Overcast.


Feels Like: -4 °F
Forecast: -15 / -23 °F
Wind: No wind

Location: Wainwright U. S. Army Airfield

Current Time: Jan 20, 2019 at 6:41:26 pm

Latest Report: Jan 20, 2019 at 5:58 pm


Visibility: 10 mi

Pressure: 29.99 "Hg

Humidity: 83%

Dew Point: -8 °F

Location of FairbanksLocation

Past Weather in Fairbanks — Graph

°F

Fairbanks Temperature Yesterday

Maximum temperature yesterday: 0 °F (at 6:58 am)
Minimum temperature yesterday: -6 °F (at 8:07 pm)
Average temperature yesterday: -2 °F

High & Low Weather Summary for the Past Weeks

 TemperatureHumidityPressure
High10 °F (Jan 16, 3:58 pm)92% (Jan 14, 10:38 am)30.26 "Hg (Jan 14, 10:38 am)
Low-47 °F (Jan 12, 12:33 am)63% (Jan 12, 12:33 am)29.79 "Hg (Jan 13, 6:58 am)
Average-19 °F76%30.04 "Hg
* Reported Jan 5 4:58 pm — Jan 20 4:58 pm, Fairbanks. Weather by CustomWeather, © 2019

Note: Actual official high and low records may vary slightly from our data, if they occured in-between our weather recording intervals... More about our weather records

Advertising

Fairbanks Weather History for the Previous 24 Hours

Scroll right to see more
 ConditionsComfort  
Time TempWeatherWind HumidityBarometerVisibility
4:58 pm
Sun, Jan 20
-3 °FOvercast.No wind83%30.01 "Hg10 mi
3:58 pm-4 °FIce fog.No wind84%30.02 "Hg6 mi
2:58 pm-4 °FIce fog.No wind83%30.04 "Hg4 mi
1:58 pm-5 °FIce fog.No wind83%30.03 "Hg5 mi
12:58 pm-5 °FIce fog.No wind84%30.05 "Hg5 mi
12:23 pm-6 °FIce fog.No wind84%30.05 "Hg5 mi
11:58 am-5 °FOvercast.No wind83%30.06 "Hg5 mi
10:58 am-5 °FOvercast.No wind82%30.06 "Hg5 mi
9:58 am-5 °FIce fog.No wind82%30.05 "Hg5 mi
9:08 am-6 °FOvercast.No wind84%30.06 "Hg7 mi
8:58 am-5 °FOvercast.No wind81%30.06 "Hg7 mi
7:58 am-5 °FOvercast.No wind80%30.05 "Hg7 mi
7:08 am-6 °FLight snow. Mostly cloudy.No wind84%30.05 "Hg7 mi
6:58 am-5 °FLight snow. Mostly cloudy.No wind81%30.05 "Hg7 mi
6:01 am-6 °FLight snow. Overcast.No wind77%30.05 "Hg8 mi
5:30 am-8 °FLight snow. Overcast.No wind84%30.05 "Hg8 mi
5:20 am-8 °FLight snow. Overcast.No wind77%30.05 "Hg8 mi
3:58 am-12 °FOvercast.No wind81%30.06 "Hg10 mi
2:58 am-11 °FOvercast.No wind82%30.06 "Hg9 mi
2:23 am-11 °FOvercast.No wind84%30.05 "Hg5 mi
1:58 am-9 °FMostly cloudy.No wind83%30.04 "Hg10 mi
12:58 am-7 °FOvercast.No wind81%30.03 "Hg8 mi
11:58 pm
Sat, Jan 19
-5 °FOvercast.No wind82%30.03 "Hg10 mi
11:18 pm-6 °FMostly cloudy.No wind84%30.02 "Hg10 mi
10:58 pm-5 °FIce fog.No wind84%30.02 "Hg6 mi
10:13 pm-6 °FLight snow. Overcast.No wind84%30.01 "Hg6 mi
9:58 pm-6 °FLight snow. Overcast.No wind84%30.01 "Hg7 mi
9:21 pm-6 °FLight snow. Mostly cloudy.No wind84%30.01 "Hg6 mi
9:04 pm-6 °FIce fog.No wind84%30.01 "Hg6 mi
8:58 pm-5 °FLight snow. Ice fog.No wind84%30.00 "Hg5 mi
8:07 pm-6 °FLight snow. Overcast.No wind84%30.00 "Hg8 mi
7:58 pm-4 °FOvercast.No wind86%30.00 "Hg8 mi
7:34 pm-4 °FLight snow. Mostly cloudy.No wind84%29.99 "Hg8 mi
7:21 pm-4 °FLight snow. Mostly cloudy.No wind84%29.99 "Hg9 mi
6:58 pm-3 °FLight snow. Overcast.No wind83%29.99 "Hg8 mi
6:03 pm-2 °FOvercast.No wind84%29.98 "Hg7 mi
Weather by CustomWeather, © 2019

See weather overview

LIVE TOTAL LUNAR ECLIPSE – Watch the eclipse as it happens